Location: Bukit Setapoh
(2.2500°N, 113.8000°E)
Time: 23:35:52
(UTC+00:00)

Aurora 2 Rocket - Pass Details

Date: 25 July 2021
Orbit: 389 x 1736 km, 25.0° (Epoch: 18 September)

Event Time Altitude Azimuth Distance (km) Brightness Sun altitude
Rises 11:18:18 0° 244° (WSW) 3,423 7.1 -10.3°
Reaches altitude 10° 11:20:30 10° 244° (WSW) 2,659 6.5 -10.8°
Maximum altitude 11:27:11 88° 331° (NNW) 1,211 4.0 -12.4°
Drops below altitude 10° 11:36:41 10° 63° (ENE) 3,684 6.1 -14.6°
Sets 11:40:15 0° 63° (ENE) 4,810 6.7 -15.4°
Enters shadow 11:40:19 - 63° (ENE) 4,833 6.7 -15.4°
